| time (UTC) | temp F | wind direction | speed MPH | gust MPH | rain 1hr in | rain 24hr in | rain mn in | humidity % | barometer mb |
| 20260902210058 | 69 | 0 | 0.0 | 0.0 | 0.00 | 0.00 | 0.00 | 82 | 1018.3 |
| 20260902204640 | 69 | 0 | 0.0 | 0.0 | 0.00 | 0.00 | 0.00 | 82 | 1018.2 |
| 20260902203106 | 69 | 0 | 0.0 | 0.0 | 0.00 | 0.00 | 0.00 | 83 | 1018.0 |
| 20260902201600 | 69 | 0 | 0.0 | 0.0 | 0.00 | 0.00 | 0.00 | 82 | 1018.4 |
| 20260902200106 | 69 | 0 | 0.0 | 0.0 | 0.00 | 0.00 | 0.00 | 83 | 1018.4 |
| 20260902194555 | 68 | 0 | 0.0 | 0.0 | 0.00 | 0.00 | 0.00 | 82 | 1018.5 |
| 20260902193059 | 68 | 0 | 0.0 | 0.0 | 0.00 | 0.00 | 0.00 | 81 | 1018.5 |
| 20260902191556 | 68 | 0 | 0.0 | 0.0 | 0.00 | 0.00 | 0.00 | 80 | 1018.7 |
| 20260902190108 | 69 | 0 | 0.0 | 1.0 | 0.00 | 0.00 | 0.00 | 78 | 1018.9 |
| 20260902184602 | 69 | 0 | 0.0 | 6.0 | 0.00 | 0.00 | 0.00 | 77 | 1019.1 |
| 20260902183111 | 69 | 0 | 0.0 | 3.0 | 0.00 | 0.00 | 0.00 | 77 | 1019.3 |
| 20260902181613 | 69 | 0 | 0.0 | 5.0 | 0.00 | 0.00 | 0.00 | 77 | 1019.0 |
| 20260902174601 | 69 | 0 | 0.0 | 1.0 | 0.00 | 0.00 | 0.00 | 77 | 1019.1 |
| 20260902173118 | 69 | 0 | 0.0 | 2.0 | 0.00 | 0.00 | 0.00 | 77 | 1019.3 |
| 20260902171606 | 69 | 0 | 0.0 | 1.0 | 0.00 | 0.00 | 0.00 | 77 | 1018.9 |
| 20260902170058 | 69 | 0 | 0.0 | 0.0 | 0.00 | 0.00 | 0.00 | 77 | 1018.9 |
| 20260902164607 | 69 | 0 | 0.0 | 1.0 | 0.00 | 0.00 | 0.00 | 77 | 1019.0 |
| 20260902163107 | 69 | 0 | 0.0 | 6.0 | 0.00 | 0.00 | 0.00 | 76 | 1019.3 |
| 20260902161615 | 69 | 0 | 0.0 | 3.0 | 0.00 | 0.00 | 0.00 | 77 | 1019.4 |
| 20260902160105 | 68 | 0 | 0.0 | 0.0 | 0.00 | 0.00 | 0.00 | 78 | 1019.3 |
| 20260902154604 | 68 | 0 | 0.0 | 4.0 | 0.00 | 0.00 | 0.00 | 78 | 1019.6 |
| 20260902153108 | 68 | 0 | 0.0 | 6.0 | 0.00 | 0.00 | 0.00 | 77 | 1019.7 |
| 20260902151556 | 68 | 0 | 0.0 | 4.0 | 0.00 | 0.00 | 0.00 | 78 | 1020.0 |
| 20260902150055 | 67 | 0 | 0.0 | 8.0 | 0.00 | 0.00 | 0.00 | 78 | 1020.1 |
| 20260902144551 | 67 | 0 | 0.0 | 7.0 | 0.00 | 0.03 | 0.00 | 78 | 1020.1 |
| 20260902143057 | 67 | 278 | 0.0 | 9.0 | 0.00 | 0.03 | 0.00 | 79 | 1020.2 |
| 20260902141554 | 67 | 0 | 0.0 | 6.0 | 0.00 | 0.03 | 0.00 | 79 | 1020.0 |
| 20260902140057 | 67 | 0 | 0.0 | 0.0 | 0.00 | 0.03 | 0.00 | 80 | 1019.9 |
| 20260902134557 | 67 | 0 | 0.0 | 7.0 | 0.00 | 0.05 | 0.00 | 80 | 1019.8 |
| 20260902133101 | 67 | 0 | 0.0 | 0.0 | 0.00 | 0.05 | 0.00 | 81 | 1019.8 |
| 20260902131553 | 67 | 0 | 0.0 | 1.0 | 0.00 | 0.05 | 0.00 | 81 | 1019.6 |
| 20260902130110 | 67 | 0 | 0.0 | 0.0 | 0.00 | 0.05 | 0.00 | 82 | 1019.3 |
| 20260902124600 | 67 | 0 | 0.0 | 0.0 | 0.00 | 0.06 | 0.00 | 85 | 1019.2 |
| 20260902123107 | 67 | 0 | 0.0 | 0.0 | 0.00 | 0.06 | 0.00 | 83 | 1019.4 |
| 20260902121556 | 67 | 0 | 0.0 | 2.0 | 0.00 | 0.06 | 0.00 | 84 | 1019.4 |
| 20260902114603 | 67 | 0 | 0.0 | 0.0 | 0.00 | 0.14 | 0.00 | 87 | 1019.2 |
| 20260902113058 | 67 | 0 | 0.0 | 1.0 | 0.00 | 0.14 | 0.00 | 85 | 1019.3 |
| 20260902111601 | 67 | 0 | 0.0 | 0.0 | 0.00 | 0.14 | 0.00 | 86 | 1019.3 |
| 20260902110100 | 67 | 0 | 0.0 | 3.0 | 0.00 | 0.14 | 0.00 | 86 | 1019.5 |
| 20260902104610 | 67 | 0 | 0.0 | 0.0 | 0.00 | 0.23 | 0.00 | 87 | 1019.1 |
| 20260902103111 | 67 | 0 | 0.0 | 0.0 | 0.00 | 0.23 | 0.00 | 88 | 1019.1 |
| 20260902101605 | 67 | 0 | 0.0 | 0.0 | 0.00 | 0.23 | 0.00 | 88 | 1018.9 |
| 20260902100055 | 66 | 0 | 0.0 | 0.0 | 0.00 | 0.23 | 0.00 | 89 | 1018.9 |
| 20260902094558 | 66 | 0 | 0.0 | 0.0 | 0.00 | 0.35 | 0.00 | 89 | 1018.9 |
| 20260902093057 | 66 | 0 | 0.0 | 0.0 | 0.00 | 0.35 | 0.00 | 89 | 1018.5 |
| 20260902091554 | 66 | 0 | 0.0 | 0.0 | 0.00 | 0.35 | 0.00 | 89 | 1018.5 |
| 20260902090051 | 66 | 0 | 0.0 | 0.0 | 0.00 | 0.35 | 0.00 | 90 | 1018.7 |
| 20260902084558 | 65 | 0 | 0.0 | 0.0 | 0.00 | 0.35 | 0.00 | 92 | 1018.9 |
| 20260902083100 | 65 | 0 | 0.0 | 0.0 | 0.00 | 0.35 | 0.00 | 93 | 1018.8 |
| 20260902081606 | 65 | 0 | 0.0 | 0.0 | 0.00 | 0.35 | 0.00 | 95 | 1018.7 |
| 20260902080057 | 65 | 0 | 0.0 | 0.0 | 0.00 | 0.35 | 0.00 | 95 | 1018.6 |
| 20260902074604 | 65 | 0 | 0.0 | 0.0 | 0.00 | 0.35 | 0.00 | 95 | 1018.6 |
| 20260902073103 | 64 | 0 | 0.0 | 0.0 | 0.00 | 0.35 | 0.00 | 95 | 1018.6 |
| 20260902071602 | 64 | 0 | 0.0 | 0.0 | 0.00 | 0.35 | 0.00 | 95 | 1018.7 |
| 20260902070100 | 64 | 0 | 0.0 | 0.0 | 0.00 | 0.35 | 0.00 | 95 | 1018.6 |
| 20260902064604 | 65 | 0 | 0.0 | 0.0 | 0.00 | 0.35 | 0.00 | 95 | 1018.6 |
| 20260902063106 | 65 | 0 | 0.0 | 0.0 | 0.00 | 0.35 | 0.00 | 95 | 1018.7 |
| 20260902061621 | 65 | 0 | 0.0 | 0.0 | 0.00 | 0.35 | 0.00 | 94 | 1018.8 |
| 20260902060058 | 64 | 0 | 0.0 | 0.0 | 0.00 | 0.35 | 0.00 | 95 | 1018.6 |
| 20260902054555 | 64 | 0 | 0.0 | 0.0 | 0.00 | 0.35 | 0.00 | 95 | 1018.6 |
| 20260902053104 | 64 | 0 | 0.0 | 0.0 | 0.00 | 0.35 | 0.00 | 95 | 1018.5 |
| 20260902051607 | 65 | 0 | 0.0 | 0.0 | 0.00 | 0.35 | 0.00 | 95 | 1018.2 |
| 20260902050107 | 65 | 0 | 0.0 | 0.0 | 0.00 | 0.35 | 0.00 | 95 | 1018.3 |
| 20260902044624 | 65 | 0 | 0.0 | 0.0 | 0.00 | 0.35 | 0.00 | 95 | 1018.0 |
| 20260902043058 | 65 | 0 | 0.0 | 0.0 | 0.00 | 0.35 | 0.00 | 95 | 1018.0 |
| 20260902041605 | 65 | 0 | 0.0 | 0.0 | 0.00 | 0.35 | 0.00 | 94 | 1018.0 |
| 20260902040109 | 65 | 0 | 0.0 | 0.0 | 0.00 | 0.35 | 0.00 | 94 | 1018.0 |
| 20260902034601 | 66 | 0 | 0.0 | 0.0 | 0.00 | 0.35 | 0.35 | 94 | 1018.0 |
| 20260902033052 | 66 | 0 | 0.0 | 0.0 | 0.00 | 0.35 | 0.35 | 93 | 1017.8 |
| 20260902031615 | 66 | 0 | 0.0 | 0.0 | 0.00 | 0.35 | 0.35 | 92 | 1017.7 |
| 20260902030057 | 67 | 0 | 0.0 | 0.0 | 0.00 | 0.35 | 0.35 | 91 | 1017.7 |
| 20260902024600 | 67 | 0 | 0.0 | 2.0 | 0.00 | 0.35 | 0.35 | 90 | 1017.5 |
| 20260902023055 | 67 | 0 | 0.0 | 0.0 | 0.00 | 0.35 | 0.35 | 90 | 1017.4 |
| 20260902021553 | 67 | 0 | 0.0 | 0.0 | 0.00 | 0.35 | 0.35 | 89 | 1017.6 |
| 20260902020058 | 68 | 0 | 0.0 | 0.0 | 0.00 | 0.35 | 0.35 | 88 | 1017.5 |
| 20260902014555 | 68 | 0 | 1.0 | 4.0 | 0.00 | 0.35 | 0.35 | 87 | 1017.4 |
| 20260902013104 | 68 | 0 | 0.0 | 6.0 | 0.00 | 0.35 | 0.35 | 87 | 1017.6 |
| 20260902011551 | 68 | 0 | 0.0 | 1.0 | 0.00 | 0.35 | 0.35 | 87 | 1017.6 |
| 20260902010100 | 68 | 0 | 0.0 | 4.0 | 0.00 | 0.35 | 0.35 | 87 | 1017.1 |
| 20260902004556 | 68 | 0 | 0.0 | 0.0 | 0.00 | 0.35 | 0.35 | 89 | 1017.2 |
| 20260902003102 | 68 | 0 | 0.0 | 0.0 | 0.00 | 0.35 | 0.35 | 90 | 1017.1 |
| 20260902001603 | 67 | 0 | 0.0 | 0.0 | 0.00 | 0.35 | 0.35 | 92 | 1017.0 |
| 20260902000056 | 67 | 0 | 0.0 | 0.0 | 0.00 | 0.35 | 0.35 | 92 | 1017.1 |
| 20260901234604 | 68 | 0 | 0.0 | 0.0 | 0.00 | 0.35 | 0.35 | 92 | 1017.1 |
| 20260901233058 | 68 | 0 | 0.0 | 0.0 | 0.00 | 0.35 | 0.35 | 91 | 1017.0 |
| 20260901231602 | 68 | 0 | 0.0 | 0.0 | 0.00 | 0.35 | 0.35 | 91 | 1016.7 |
| 20260901230111 | 69 | 0 | 0.0 | 0.0 | 0.00 | 0.35 | 0.35 | 89 | 1016.7 |
| 20260901224600 | 69 | 0 | 0.0 | 0.0 | 0.00 | 0.35 | 0.35 | 88 | 1016.4 |
| 20260901223055 | 69 | 0 | 0.0 | 0.0 | 0.00 | 0.35 | 0.35 | 90 | 1016.4 |
| 20260901221607 | 70 | 0 | 0.0 | 0.0 | 0.00 | 0.35 | 0.35 | 89 | 1016.3 |
| 20260901220100 | 70 | 0 | 0.0 | 0.0 | 0.00 | 0.35 | 0.35 | 89 | 1016.4 |
| 20260901214555 | 70 | 0 | 0.0 | 0.0 | 0.00 | 0.35 | 0.35 | 88 | 1016.5 |
| 20260901213056 | 71 | 0 | 0.0 | 0.0 | 0.00 | 0.35 | 0.35 | 90 | 1016.4 |
| 20260901211600 | 70 | 0 | 0.0 | 0.0 | 0.00 | 0.35 | 0.35 | 89 | 1016.5 |